| time (UTC) | temp F | wind direction | speed MPH | gust MPH | rain 1hr in | rain 24hr in | rain mn in | humidity % | barometer mb |
| 20260506034558 | 77 | 138 | 5.0 | 15.0 | 0.00 | 0.00 | 0.00 | 94 | 1008.5 |
| 20260506033109 | 77 | 136 | 5.0 | 12.0 | 0.00 | 0.00 | 0.00 | 94 | 1008.4 |
| 20260506031554 | 78 | 168 | 2.0 | 8.0 | 0.00 | 0.00 | 0.00 | 94 | 1008.3 |
| 20260506030100 | 78 | 144 | 1.0 | 7.0 | 0.00 | 0.00 | 0.00 | 93 | 1007.9 |
| 20260506024607 | 79 | 139 | 3.0 | 8.0 | 0.00 | 0.00 | 0.00 | 93 | 1007.8 |
| 20260506023057 | 79 | 115 | 2.0 | 6.0 | 0.00 | 0.00 | 0.00 | 92 | 1007.8 |
| 20260506021557 | 80 | 103 | 2.0 | 5.0 | 0.00 | 0.00 | 0.00 | 91 | 1007.6 |
| 20260506020050 | 80 | 113 | 1.0 | 6.0 | 0.00 | 0.00 | 0.00 | 91 | 1007.5 |
| 20260506014550 | 80 | 151 | 1.0 | 5.0 | 0.00 | 0.00 | 0.00 | 91 | 1007.4 |
| 20260506013052 | 81 | 136 | 2.0 | 6.0 | 0.00 | 0.00 | 0.00 | 90 | 1007.1 |
| 20260506011610 | 81 | 144 | 2.0 | 5.0 | 0.00 | 0.00 | 0.00 | 89 | 1007.0 |
| 20260506010048 | 82 | 162 | 2.0 | 7.0 | 0.00 | 0.00 | 0.00 | 88 | 1006.8 |
| 20260506004547 | 82 | 123 | 3.0 | 8.0 | 0.00 | 0.00 | 0.00 | 87 | 1006.6 |
| 20260506003047 | 83 | 167 | 2.0 | 7.0 | 0.00 | 0.00 | 0.00 | 86 | 1006.5 |
| 20260506001546 | 84 | 136 | 3.0 | 9.0 | 0.00 | 0.00 | 0.00 | 85 | 1006.4 |
| 20260506000053 | 85 | 121 | 3.0 | 8.0 | 0.00 | 0.00 | 0.00 | 84 | 1006.1 |
| 20260505234545 | 85 | 124 | 2.0 | 7.0 | 0.00 | 0.00 | 0.00 | 83 | 1006.1 |
| 20260505233045 | 85 | 128 | 3.0 | 8.0 | 0.00 | 0.00 | 0.00 | 83 | 1006.1 |
| 20260505230042 | 86 | 136 | 2.0 | 8.0 | 0.00 | 0.00 | 0.00 | 82 | 1006.0 |
| 20260505224541 | 86 | 164 | 4.0 | 11.0 | 0.00 | 0.00 | 0.00 | 81 | 1006.1 |
| 20260505223016 | 86 | 167 | 2.0 | 8.0 | 0.00 | 0.00 | 0.00 | 81 | 1006.2 |
| 20260505221536 | 86 | 206 | 3.0 | 12.0 | 0.00 | 0.00 | 0.00 | 81 | 1006.3 |
| 20260505220051 | 86 | 171 | 2.0 | 7.0 | 0.00 | 0.00 | 0.00 | 81 | 1006.4 |
| 20260505214632 | 86 | 202 | 2.0 | 8.0 | 0.00 | 0.00 | 0.00 | 82 | 1006.6 |
| 20260505213032 | 86 | 179 | 5.0 | 10.0 | 0.00 | 0.00 | 0.00 | 82 | 1006.8 |
| 20260505211534 | 85 | 150 | 3.0 | 10.0 | 0.00 | 0.00 | 0.00 | 83 | 1007.0 |
| 20260505210025 | 85 | 169 | 2.0 | 12.0 | 0.00 | 0.00 | 0.00 | 83 | 1007.1 |
| 20260505204525 | 85 | 134 | 3.0 | 10.0 | 0.00 | 0.00 | 0.00 | 83 | 1007.5 |
| 20260505201520 | 84 | 217 | 4.0 | 12.0 | 0.00 | 0.00 | 0.00 | 83 | 1007.8 |
| 20260505200018 | 84 | 182 | 4.0 | 12.0 | 0.00 | 0.00 | 0.00 | 84 | 1008.0 |
| 20260505194521 | 84 | 148 | 3.0 | 10.0 | 0.00 | 0.00 | 0.00 | 85 | 1008.3 |
| 20260505193021 | 84 | 175 | 2.0 | 6.0 | 0.00 | 0.00 | 0.00 | 83 | 1008.4 |
| 20260505191514 | 83 | 215 | 4.0 | 10.0 | 0.00 | 0.00 | 0.00 | 84 | 1008.7 |
| 20260505190010 | 82 | 169 | 5.0 | 10.0 | 0.00 | 0.00 | 0.00 | 86 | 1008.9 |
| 20260505184505 | 81 | 138 | 4.0 | 10.0 | 0.00 | 0.00 | 0.00 | 87 | 1009.2 |
| 20260505183003 | 80 | 205 | 4.0 | 11.0 | 0.00 | 0.00 | 0.00 | 88 | 1009.4 |
| 20260505181503 | 80 | 214 | 4.0 | 9.0 | 0.00 | 0.00 | 0.00 | 88 | 1009.3 |
| 20260505180100 | 79 | 166 | 3.0 | 9.0 | 0.00 | 0.00 | 0.00 | 90 | 1009.3 |
| 20260505174557 | 79 | 201 | 3.0 | 10.0 | 0.00 | 0.00 | 0.00 | 90 | 1009.7 |
| 20260505173055 | 78 | 146 | 2.0 | 9.0 | 0.00 | 0.00 | 0.00 | 91 | 1009.8 |
| 20260505171552 | 78 | 202 | 4.0 | 10.0 | 0.00 | 0.00 | 0.00 | 91 | 1009.8 |
| 20260505170050 | 77 | 213 | 6.0 | 11.0 | 0.00 | 0.00 | 0.00 | 92 | 1009.9 |
| 20260505164557 | 76 | 232 | 7.0 | 11.0 | 0.00 | 0.00 | 0.00 | 94 | 1009.9 |
| 20260505163046 | 76 | 215 | 5.0 | 10.0 | 0.00 | 0.00 | 0.00 | 94 | 1009.9 |
| 20260505153040 | 74 | 206 | 5.0 | 9.0 | 0.00 | 0.00 | 0.00 | 97 | 1010.0 |
| 20260505151535 | 73 | 202 | 4.0 | 11.0 | 0.00 | 0.00 | 0.00 | 98 | 1010.0 |
| 20260505124535 | 72 | 184 | 3.0 | 11.0 | 0.00 | 0.00 | 0.00 | 97 | 1009.1 |
| 20260505123025 | 72 | 194 | 2.0 | 10.0 | 0.00 | 0.00 | 0.00 | 97 | 1008.9 |
| 20260505121523 | 72 | 174 | 4.0 | 10.0 | 0.00 | 0.00 | 0.00 | 97 | 1008.9 |
| 20260505120030 | 72 | 188 | 4.0 | 13.0 | 0.00 | 0.00 | 0.00 | 97 | 1008.9 |
| 20260505114522 | 71 | 188 | 4.0 | 15.0 | 0.00 | 0.00 | 0.00 | 98 | 1008.8 |
| 20260505113021 | 71 | 190 | 4.0 | 10.0 | 0.00 | 0.00 | 0.00 | 98 | 1008.6 |
| 20260505111520 | 71 | 208 | 4.0 | 10.0 | 0.00 | 0.00 | 0.00 | 97 | 1008.7 |
| 20260505101515 | 71 | 211 | 4.0 | 14.0 | 0.00 | 0.00 | 0.00 | 97 | 1009.0 |
| 20260505100015 | 71 | 172 | 5.0 | 12.0 | 0.00 | 0.00 | 0.00 | 97 | 1008.8 |
| 20260505094513 | 71 | 183 | 3.0 | 9.0 | 0.00 | 0.00 | 0.00 | 97 | 1008.9 |
| 20260505093010 | 71 | 170 | 7.0 | 14.0 | 0.00 | 0.00 | 0.00 | 97 | 1009.3 |
| 20260505091513 | 71 | 200 | 8.0 | 17.0 | 0.00 | 0.00 | 0.00 | 97 | 1009.1 |
| 20260505090108 | 71 | 188 | 5.0 | 12.0 | 0.00 | 0.00 | 0.00 | 97 | 1009.2 |
| 20260505084520 | 70 | 161 | 6.0 | 12.0 | 0.00 | 0.00 | 0.00 | 98 | 1009.3 |
| 20260505083005 | 70 | 171 | 3.0 | 8.0 | 0.00 | 0.00 | 0.00 | 98 | 1009.5 |
| 20260505081511 | 70 | 188 | 2.0 | 9.0 | 0.00 | 0.00 | 0.00 | 98 | 1009.6 |
| 20260505080001 | 70 | 148 | 4.0 | 9.0 | 0.00 | 0.00 | 0.00 | 98 | 1009.9 |
| 20260505074559 | 70 | 188 | 3.0 | 11.0 | 0.00 | 0.00 | 0.00 | 97 | 1010.0 |
| 20260505073101 | 70 | 201 | 5.0 | 11.0 | 0.00 | 0.00 | 0.00 | 97 | 1010.2 |
| 20260505071556 | 70 | 183 | 3.0 | 12.0 | 0.00 | 0.00 | 0.00 | 97 | 1010.4 |
| 20260505070053 | 70 | 176 | 1.0 | 8.0 | 0.00 | 0.00 | 0.00 | 97 | 1010.7 |
| 20260505064600 | 70 | 196 | 3.0 | 14.0 | 0.00 | 0.00 | 0.00 | 97 | 1010.6 |
| 20260505063055 | 70 | 205 | 2.0 | 8.0 | 0.00 | 0.00 | 0.00 | 97 | 1010.9 |
| 20260505061551 | 70 | 207 | 3.0 | 9.0 | 0.00 | 0.00 | 0.00 | 96 | 1010.9 |
| 20260505060045 | 70 | 206 | 3.0 | 9.0 | 0.00 | 0.00 | 0.00 | 96 | 1010.8 |
| 20260505054545 | 70 | 167 | 4.0 | 10.0 | 0.00 | 0.00 | 0.00 | 96 | 1010.7 |
| 20260505053106 | 70 | 158 | 4.0 | 11.0 | 0.00 | 0.00 | 0.00 | 95 | 1010.4 |
| 20260505051538 | 71 | 148 | 2.0 | 14.0 | 0.00 | 0.00 | 0.00 | 95 | 1010.7 |
| 20260505041541 | 72 | 159 | 1.0 | 10.0 | 0.00 | 0.00 | 0.00 | 93 | 1011.1 |